| time (UTC) | temp F | wind direction | speed MPH | gust MPH | rain 1hr in | rain 24hr in | rain mn in | humidity % | barometer mb |
| 20260509033028 | 65 | 305 | 7.0 | 16.0 | 0.00 | 0.11 | 0.03 | 80 | 1001.7 |
| 20260509031527 | 65 | 281 | 7.0 | 15.0 | 0.00 | 0.11 | 0.03 | 79 | 1001.9 |
| 20260509030026 | 66 | 279 | 6.0 | 12.0 | 0.00 | 0.11 | 0.03 | 79 | 1002.0 |
| 20260509024526 | 66 | 290 | 5.0 | 16.0 | 0.00 | 0.11 | 0.03 | 78 | 1001.9 |
| 20260509023026 | 65 | 284 | 8.0 | 14.0 | 0.00 | 0.11 | 0.03 | 77 | 1001.9 |
| 20260509021525 | 68 | 279 | 8.0 | 15.0 | 0.00 | 0.11 | 0.03 | 72 | 1001.8 |
| 20260509020024 | 67 | 281 | 4.0 | 11.0 | 0.00 | 0.11 | 0.03 | 75 | 1001.7 |
| 20260509014527 | 68 | 288 | 7.0 | 15.0 | 0.00 | 0.11 | 0.03 | 72 | 1001.9 |
| 20260509013022 | 67 | 297 | 6.0 | 14.0 | 0.00 | 0.11 | 0.03 | 76 | 1002.0 |
| 20260509011519 | 66 | 254 | 6.0 | 11.0 | 0.00 | 0.11 | 0.03 | 75 | 1002.2 |
| 20260509010025 | 68 | 277 | 7.0 | 16.0 | 0.00 | 0.11 | 0.03 | 74 | 1002.3 |
| 20260509004521 | 67 | 273 | 9.0 | 14.0 | 0.00 | 0.11 | 0.03 | 74 | 1002.6 |
| 20260509003014 | 67 | 302 | 6.0 | 16.0 | 0.00 | 0.11 | 0.03 | 77 | 1002.8 |
| 20260509001509 | 66 | 271 | 4.0 | 16.0 | 0.00 | 0.11 | 0.03 | 78 | 1003.2 |
| 20260509000004 | 67 | 333 | 9.0 | 17.0 | 0.00 | 0.11 | 0.03 | 78 | 1003.4 |
| 20260508234501 | 66 | 253 | 10.0 | 16.0 | 0.00 | 0.11 | 0.03 | 80 | 1003.8 |
| 20260508233115 | 66 | 311 | 8.0 | 14.0 | 0.00 | 0.11 | 0.03 | 81 | 1004.1 |
| 20260508231600 | 67 | 297 | 4.0 | 12.0 | 0.00 | 0.11 | 0.03 | 82 | 1004.1 |
| 20260508230055 | 66 | 265 | 7.0 | 14.0 | 0.00 | 0.11 | 0.03 | 81 | 1004.3 |
| 20260508224556 | 65 | 284 | 6.0 | 14.0 | 0.00 | 0.11 | 0.03 | 82 | 1004.4 |
| 20260508223050 | 65 | 355 | 5.0 | 13.0 | 0.00 | 0.11 | 0.03 | 84 | 1004.5 |
| 20260508221546 | 64 | 293 | 6.0 | 12.0 | 0.00 | 0.11 | 0.03 | 85 | 1004.5 |
| 20260508220050 | 63 | 312 | 3.0 | 11.0 | 0.00 | 0.11 | 0.03 | 85 | 1004.7 |
| 20260508214546 | 64 | 281 | 2.0 | 9.0 | 0.00 | 0.11 | 0.03 | 86 | 1004.7 |
| 20260508213042 | 63 | 312 | 6.0 | 11.0 | 0.00 | 0.11 | 0.03 | 86 | 1004.7 |
| 20260508211540 | 62 | 299 | 3.0 | 9.0 | 0.00 | 0.11 | 0.03 | 89 | 1004.6 |
| 20260508210037 | 62 | 267 | 4.0 | 9.0 | 0.00 | 0.11 | 0.03 | 91 | 1004.7 |
| 20260508204537 | 61 | 312 | 4.0 | 8.0 | 0.00 | 0.11 | 0.03 | 92 | 1004.7 |
| 20260508203034 | 60 | 321 | 2.0 | 6.0 | 0.00 | 0.11 | 0.03 | 92 | 1004.6 |
| 20260508201527 | 60 | 315 | 3.0 | 8.0 | 0.00 | 0.11 | 0.03 | 92 | 1004.5 |
| 20260508200032 | 59 | 319 | 0.0 | 4.0 | 0.01 | 0.11 | 0.03 | 92 | 1004.5 |
| 20260508194526 | 58 | 315 | 1.0 | 5.0 | 0.01 | 0.11 | 0.03 | 92 | 1004.4 |
| 20260508193026 | 58 | 320 | 1.0 | 5.0 | 0.01 | 0.11 | 0.03 | 92 | 1004.3 |
| 20260508191524 | 59 | 290 | 2.0 | 6.0 | 0.01 | 0.11 | 0.03 | 92 | 1004.3 |
| 20260508190024 | 59 | 285 | 3.0 | 12.0 | 0.00 | 0.10 | 0.02 | 93 | 1004.3 |
| 20260508184524 | 59 | 271 | 0.0 | 4.0 | 0.00 | 0.10 | 0.02 | 92 | 1004.1 |
| 20260508183023 | 59 | 274 | 2.0 | 6.0 | 0.00 | 0.10 | 0.02 | 92 | 1004.0 |
| 20260508181527 | 59 | 280 | 0.0 | 4.0 | 0.00 | 0.10 | 0.02 | 92 | 1004.0 |
| 20260508180020 | 59 | 292 | 0.0 | 3.0 | 0.00 | 0.10 | 0.02 | 92 | 1003.9 |
| 20260508174520 | 59 | 294 | 0.0 | 3.0 | 0.00 | 0.10 | 0.02 | 92 | 1003.9 |
| 20260508173019 | 59 | 279 | 1.0 | 6.0 | 0.00 | 0.10 | 0.02 | 92 | 1003.8 |
| 20260508171523 | 59 | 286 | 0.0 | 5.0 | 0.00 | 0.10 | 0.02 | 92 | 1003.9 |
| 20260508170019 | 59 | 306 | 0.0 | 0.0 | 0.00 | 0.10 | 0.02 | 92 | 1003.8 |
| 20260508164518 | 59 | 294 | 1.0 | 5.0 | 0.00 | 0.10 | 0.02 | 92 | 1003.8 |
| 20260508163017 | 59 | 275 | 0.0 | 4.0 | 0.00 | 0.10 | 0.02 | 92 | 1003.9 |
| 20260508161525 | 59 | 317 | 0.0 | 4.0 | 0.01 | 0.10 | 0.02 | 92 | 1004.0 |
| 20260508160012 | 59 | 298 | 0.0 | 3.0 | 0.01 | 0.10 | 0.02 | 92 | 1004.1 |
| 20260508154511 | 59 | 310 | 0.0 | 8.0 | 0.01 | 0.10 | 0.02 | 92 | 1004.0 |
| 20260508153017 | 59 | 319 | 3.0 | 10.0 | 0.01 | 0.10 | 0.02 | 92 | 1004.1 |
| 20260508151507 | 59 | 286 | 3.0 | 9.0 | 0.00 | 0.09 | 0.02 | 92 | 1004.3 |
| 20260508150010 | 59 | 283 | 2.0 | 7.0 | 0.00 | 0.09 | 0.02 | 92 | 1004.4 |
| 20260508144509 | 59 | 286 | 2.0 | 5.0 | 0.00 | 0.09 | 0.02 | 92 | 1004.4 |
| 20260508143005 | 59 | 300 | 0.0 | 8.0 | 0.00 | 0.09 | 0.02 | 92 | 1004.3 |
| 20260508141502 | 59 | 286 | 2.0 | 8.0 | 0.00 | 0.09 | 0.02 | 92 | 1004.5 |
| 20260508140119 | 59 | 309 | 1.0 | 5.0 | 0.00 | 0.09 | 0.02 | 92 | 1004.7 |
| 20260508134559 | 59 | 323 | 1.0 | 6.0 | 0.00 | 0.09 | 0.02 | 92 | 1004.8 |
| 20260508133104 | 59 | 317 | 2.0 | 6.0 | 0.00 | 0.09 | 0.02 | 92 | 1004.9 |
| 20260508131557 | 59 | 317 | 2.0 | 7.0 | 0.01 | 0.09 | 0.02 | 92 | 1004.9 |
| 20260508130055 | 59 | 317 | 2.0 | 8.0 | 0.02 | 0.09 | 0.02 | 92 | 1004.7 |
| 20260508124554 | 59 | 282 | 1.0 | 7.0 | 0.03 | 0.09 | 0.02 | 91 | 1005.0 |
| 20260508123052 | 59 | 297 | 3.0 | 8.0 | 0.03 | 0.09 | 0.02 | 91 | 1005.1 |
| 20260508121549 | 59 | 282 | 5.0 | 13.0 | 0.04 | 0.09 | 0.01 | 91 | 1005.5 |
| 20260508120051 | 59 | 257 | 7.0 | 12.0 | 0.06 | 0.08 | 0.00 | 90 | 1005.6 |
| 20260508114543 | 60 | 274 | 6.0 | 16.0 | 0.05 | 0.06 | 0.06 | 89 | 1005.8 |
| 20260508113040 | 61 | 272 | 7.0 | 18.0 | 0.05 | 0.06 | 0.06 | 89 | 1005.2 |
| 20260508111540 | 65 | 313 | 3.0 | 9.0 | 0.03 | 0.05 | 0.05 | 90 | 1005.0 |
| 20260508110036 | 65 | 333 | 6.0 | 15.0 | 0.00 | 0.02 | 0.02 | 90 | 1005.0 |
| 20260508104531 | 65 | 342 | 5.0 | 14.0 | 0.00 | 0.02 | 0.02 | 89 | 1005.4 |
| 20260508103041 | 65 | 334 | 5.0 | 14.0 | 0.00 | 0.02 | 0.02 | 88 | 1005.4 |
| 20260508101528 | 65 | 5 | 6.0 | 15.0 | 0.00 | 0.02 | 0.02 | 87 | 1005.5 |
| 20260508100032 | 66 | 10 | 6.0 | 12.0 | 0.00 | 0.02 | 0.02 | 87 | 1005.7 |
| 20260508094512 | 66 | 350 | 7.0 | 14.0 | 0.00 | 0.02 | 0.02 | 87 | 1005.9 |
| 20260508093012 | 65 | 355 | 6.0 | 11.0 | 0.00 | 0.02 | 0.02 | 86 | 1006.1 |
| 20260508091514 | 65 | 323 | 7.0 | 13.0 | 0.00 | 0.02 | 0.02 | 86 | 1006.3 |
| 20260508090009 | 65 | 5 | 5.0 | 11.0 | 0.00 | 0.02 | 0.02 | 86 | 1006.2 |
| 20260508084507 | 65 | 325 | 5.0 | 11.0 | 0.00 | 0.02 | 0.02 | 86 | 1006.7 |
| 20260508083105 | 65 | 360 | 4.0 | 14.0 | 0.00 | 0.02 | 0.02 | 86 | 1006.8 |
| 20260508081504 | 65 | 331 | 4.0 | 12.0 | 0.01 | 0.02 | 0.02 | 86 | 1007.0 |
| 20260508080003 | 65 | 347 | 4.0 | 14.0 | 0.01 | 0.02 | 0.02 | 87 | 1007.2 |
| 20260508074502 | 64 | 355 | 6.0 | 14.0 | 0.01 | 0.02 | 0.02 | 88 | 1007.5 |
| 20260508073001 | 64 | 355 | 7.0 | 18.0 | 0.01 | 0.02 | 0.02 | 88 | 1007.9 |
| 20260508071501 | 65 | 318 | 5.0 | 15.0 | 0.00 | 0.01 | 0.01 | 87 | 1007.7 |
| 20260508070100 | 65 | 344 | 7.0 | 13.0 | 0.00 | 0.01 | 0.01 | 86 | 1007.6 |
| 20260508064559 | 65 | 348 | 7.0 | 14.0 | 0.00 | 0.01 | 0.01 | 87 | 1007.4 |
| 20260508063100 | 65 | 355 | 6.0 | 15.0 | 0.01 | 0.01 | 0.01 | 87 | 1007.1 |
| 20260508061605 | 64 | 54 | 5.0 | 15.0 | 0.01 | 0.01 | 0.01 | 88 | 1007.2 |
| 20260508060120 | 64 | 343 | 6.0 | 11.0 | 0.01 | 0.01 | 0.01 | 88 | 1007.5 |
| 20260508054640 | 64 | 329 | 5.0 | 14.0 | 0.01 | 0.01 | 0.01 | 88 | 1007.7 |
| 20260508053056 | 65 | 355 | 5.0 | 12.0 | 0.00 | 0.00 | 0.00 | 87 | 1007.7 |
| 20260508051551 | 65 | 26 | 8.0 | 14.0 | 0.00 | 0.00 | 0.00 | 86 | 1008.2 |
| 20260508050051 | 65 | 339 | 6.0 | 14.0 | 0.00 | 0.00 | 0.00 | 86 | 1008.4 |
| 20260508044549 | 65 | 5 | 7.0 | 13.0 | 0.00 | 0.00 | 0.00 | 86 | 1008.7 |
| 20260508043056 | 66 | 21 | 10.0 | 17.0 | 0.00 | 0.00 | 0.00 | 85 | 1008.8 |
| 20260508041548 | 66 | 333 | 6.0 | 13.0 | 0.00 | 0.00 | 0.00 | 85 | 1009.1 |
| 20260508040046 | 66 | 342 | 6.0 | 15.0 | 0.00 | 0.00 | 0.00 | 84 | 1009.5 |
| 20260508034550 | 66 | 335 | 6.0 | 12.0 | 0.00 | 0.00 | 0.00 | 84 | 1009.4 |